sat.trackr.live / text

‹ back to catalog

ONEWEB-0518

NORAD 54136 · 2022-138Z

PAYLOAD ACTIVE UNKNOWN

§ Identity

Operator
Country
UK
Launch date
2022-10-22
Launch site
SRILR
Launch vehicle
Mass (kg)
RCS (m²)

Purposes: comms

External: N2YO · Heavens-Above · Gunter

§ Orbital elements

Epoch: 2026-09-20T01:38:17.491200Z

Period
109.11 min
Inclination
87.9109°
Eccentricity
0.0001771
Mean motion
13.19724424 rev/d
Perigee alt
1,184.4 km
Apogee alt
1,187.1 km
Semi-major
7,563.9 km
B*
-7.8912e-6
RAAN
286.0684°
Arg perigee
89.6571°
Mean anomaly
270.4765°
Rev number
18,934

§ Raw data

ONEWEB-05181 54136U 22138Z   26263.06825800  .00000010  00000+0 -78912-5 0  99962 54136  87.9109 286.0684 0001771  89.6571 270.4765 13.19724424189344

JSON: /api/v1/satellites/54136 · /tle

For live sub-satellite position, see the globe view (requires WebGL).

§ Visibility from observer

Set your observer location to see the next 7 days of passes ≥ 10°. The values pass through the URL so the page stays shareable.

No JS? Fill the form by hand. The geolocation button needs JavaScript.